Weather History for KP92 - January, 2013

Change the Weather History Date:

Wednesday, January 2, 2013

  Actual Average Record
Temperature  
Mean Temperature 58 °F -  
Max Temperature 64 °F 58 °F 73 °F (2000)
Min Temperature 48 °F 43 °F 27 °F (2001)
Degree Days  
Heating Degree Days 7    
Growing Degree Days 8 (Base 50)    
Moisture  
Dew Point 43 °F    
Average Humidity 56    
Maximum Humidity 74    
Minimum Humidity 48    
Precipitation  
Precipitation 0.14 in - - ()
Sea Level Pressure  
Sea Level Pressure 30.16 in    
Wind  
Wind Speed 7 mph (North)    
Max Wind Speed 9 mph    
Max Gust Speed 18 mph    
Averages and records for this station are not official NWS values.
T = Trace of Precipitation, MM = Missing Value Source: NWS Daily Summary

Daily Weather History Graph

Daily Weather History Graph

Search for Another Location

Airport or City:

Trip Planner

Search our weather history database for the weather conditions in past years. The results will help you decide how hot, cold, wet, or windy it might be!

Date:

Astronomy

Jan. 02, 2013 Rise Set
Actual Time 7:01 AM CST 5:19 PM CST
Civil Twilight 6:35 AM CST 5:45 PM CST
Nautical Twilight 6:05 AM CST 6:15 PM CST
Astronomical Twilight 5:36 AM CST 6:44 PM CST
Moon 10:25 PM CST (1/2) 10:07 AM CST (1/2)
Length of Visible Light 11h 10m
Length of Day
10h 18m
Waning Gibbous, 75% of the Moon is Illuminated
Jan 2
Waning Gibbous
Jan 4
Last Quarter
Jan 11
New
Jan 18
First Quarter
Jan 26
Full

Hourly Weather History & Observations

Time (CST) Temp. Dew Point Humidity Pressure Visibility Wind Dir Wind Speed Gust Speed Precip Events Conditions
12:53 AM 64.9 °F 48.0 °F 54% 30.08 in - North 8.1 mph - N/A   Unknown
1:53 AM 63.0 °F 46.9 °F 56% 30.09 in - North 6.9 mph - 0.01 in   Unknown
2:53 AM 60.1 °F 46.0 °F 60% 30.08 in - North 5.8 mph - N/A   Unknown
3:53 AM 62.1 °F 46.0 °F 56% 30.08 in - North 6.9 mph - N/A   Unknown
4:53 AM 61.0 °F 45.0 °F 56% 30.11 in - NNW 5.8 mph - N/A   Unknown
5:53 AM 60.1 °F 44.1 °F 55% 30.12 in - North 9.2 mph - N/A   Unknown
6:53 AM 60.1 °F 44.1 °F 55% 30.14 in - North 6.9 mph - N/A   Unknown
7:53 AM 59.0 °F 44.1 °F 58% 30.17 in - North 9.2 mph 18.4 mph N/A   Unknown
8:53 AM 60.1 °F 43.0 °F 53% 30.18 in - North 6.9 mph - N/A   Unknown
9:53 AM 57.9 °F 43.0 °F 58% 30.17 in - NNE 8.1 mph - N/A   Unknown
10:53 AM 62.1 °F 43.0 °F 50% 30.16 in - North 9.2 mph - N/A   Unknown
11:53 AM 62.1 °F 42.1 °F 48% 30.16 in - North 6.9 mph - N/A   Unknown
12:53 PM 63.0 °F 43.0 °F 48% 30.14 in - North 9.2 mph - N/A   Unknown
1:53 PM 61.0 °F 43.0 °F 52% 30.16 in - NNW 5.8 mph - N/A   Unknown
2:53 PM 61.0 °F 44.1 °F 54% 30.15 in - North 4.6 mph - 0.04 in   Unknown
3:53 PM 59.0 °F 44.1 °F 58% 30.17 in - NNW 8.1 mph - N/A   Unknown
4:53 PM 59.0 °F 43.0 °F 55% 30.15 in - North 8.1 mph - N/A   Unknown
5:53 PM 59.0 °F 42.1 °F 53% 30.20 in - North 6.9 mph - 0.01 in   Unknown
6:53 PM 55.0 °F 42.1 °F 62% 30.18 in - North 5.8 mph - 0.03 in   Unknown
7:53 PM 55.0 °F 42.1 °F 62% 30.19 in - North 4.6 mph - 0.03 in   Unknown
8:53 PM 57.9 °F 41.0 °F 53% 30.22 in - North 9.2 mph - 0.01 in   Unknown
9:53 PM 55.9 °F 39.9 °F 55% 30.22 in - North 9.2 mph - N/A   Unknown
10:53 PM 52.0 °F 39.9 °F 63% 30.25 in - Variable 4.6 mph - N/A   Unknown
11:53 PM 48.0 °F 39.9 °F 74% 30.23 in - Variable 3.5 mph - 0.01 in   Unknown